EW3298 Weather Reports


time (UTC)temp
F
wind
direction
speed
knots
gust
knots
rain 1hr
in
rain 24hr
in
rain mn
in
humidity
%
barometer
mb
20260507033048 80 198 0.0 0.0 0.00 0.00 0.00 29 1012.5
20260507033024 80 198 0.0 0.0 0.00 0.00 0.00 29 1011.9
20260507031541 80 198 0.0 1.7 0.00 0.00 0.00 29 1012.2
20260507031508 80 198 0.0 1.7 0.00 0.00 0.00 29 1011.8
20260507030042 81 198 0.0 1.7 0.00 0.00 0.00 29 1012.0
20260507030017 81 198 0.0 1.7 0.00 0.00 0.00 28 1011.6
20260507024542 82 163 0.9 7.0 0.00 0.00 0.00 27 1011.8
20260507024521 82 180 0.9 7.0 0.00 0.00 0.00 26 1011.4
20260507023041 82 165 0.9 6.1 0.00 0.00 0.00 25 1011.5
20260507023028 82 142 1.7 6.1 0.00 0.00 0.00 25 1011.2
20260507021543 83 132 3.5 5.2 0.00 0.00 0.00 25 1011.3
20260507021514 83 135 2.6 5.2 0.00 0.00 0.00 24 1011.0
20260507020042 84 140 2.6 7.0 0.00 0.00 0.00 24 1011.3
20260507020012 84 150 1.7 7.8 0.00 0.00 0.00 24 1011.0
20260507014548 85 151 4.3 8.7 0.00 0.00 0.00 22 1011.2
20260507014520 85 128 4.3 8.7 0.00 0.00 0.00 22 1010.8
20260507013038 86 139 4.3 7.8 0.00 0.00 0.00 22 1011.1
20260507013033 86 134 3.5 7.8 0.00 0.00 0.00 21 1010.8
20260507011541 86 115 3.5 7.0 0.00 0.00 0.00 21 1011.1
20260507011536 86 126 3.5 7.0 0.00 0.00 0.00 21 1010.8
20260507010037 87 118 4.3 8.7 0.00 0.00 0.00 22 1011.0
20260507010013 87 197 4.3 8.7 0.00 0.00 0.00 21 1010.7
20260507004539 87 88 4.3 7.0 0.00 0.00 0.00 21 1011.0
20260507004518 87 103 3.5 8.7 0.00 0.00 0.00 21 1010.7
20260507003036 87 108 6.1 10.4 0.00 0.00 0.00 21 1010.9
20260507003020 87 121 5.2 10.4 0.00 0.00 0.00 20 1010.6
20260507001540 87 119 4.3 8.7 0.00 0.00 0.00 21 1010.9
20260507000036 87 142 4.3 7.8 0.00 0.00 0.00 21 1010.8
20260507000027 87 133 4.3 7.8 0.00 0.00 0.00 20 1010.4
20260506234533 87 113 5.2 7.8 0.00 0.00 0.00 20 1010.9
20260506234516 87 99 4.3 7.8 0.00 0.00 0.00 20 1010.6
20260506233034 88 148 5.2 8.7 0.00 0.00 0.00 20 1010.9
20260506233029 88 133 5.2 8.7 0.00 0.00 0.00 19 1010.6
20260506231530 88 189 0.9 7.8 0.00 0.00 0.00 20 1011.0
20260506231526 88 213 0.9 7.8 0.00 0.00 0.00 20 1010.7
20260506230029 88 116 3.5 7.8 0.00 0.00 0.00 20 1011.1
20260506230027 88 157 3.5 7.8 0.00 0.00 0.00 20 1010.8
20260506224528 88 134 3.5 6.1 0.00 0.00 0.00 20 1011.3
20260506224524 88 181 3.5 7.0 0.00 0.00 0.00 19 1011.0
20260506223026 87 140 3.5 8.7 0.00 0.00 0.00 20 1011.6
20260506223018 88 105 5.2 8.7 0.00 0.00 0.00 20 1011.2
20260506221524 87 105 4.3 7.8 0.00 0.00 0.00 22 1011.8
20260506221522 87 144 4.3 7.8 0.00 0.00 0.00 21 1011.5
20260506220031 87 129 6.1 8.7 0.00 0.00 0.00 22 1012.1
20260506220026 87 128 5.2 7.8 0.00 0.00 0.00 22 1011.7
20260506214528 87 39 0.0 5.2 0.00 0.00 0.00 22 1011.9
20260506214519 87 28 0.0 5.2 0.00 0.00 0.00 22 1012.3
20260506213020 86 91 2.6 7.0 0.00 0.00 0.00 22 1012.1
20260506213016 86 82 2.6 6.1 0.00 0.00 0.00 22 1012.6
20260506211519 87 95 1.7 6.1 0.00 0.00 0.00 21 1012.3
20260506211514 87 95 0.9 6.1 0.00 0.00 0.00 22 1012.8
20260506210024 86 91 1.7 6.1 0.00 0.00 0.00 22 1012.5
20260506210013 86 91 1.7 6.1 0.00 0.00 0.00 23 1012.9
20260506204526 85 94 2.6 5.2 0.00 0.00 0.00 22 1012.7
20260506204509 85 94 2.6 5.2 0.00 0.00 0.00 23 1013.2
20260506203034 85 109 2.6 7.0 0.00 0.00 0.00 23 1012.8
20260506203018 85 97 3.5 7.0 0.00 0.00 0.00 23 1013.3
20260506201521 84 115 0.9 6.1 0.00 0.00 0.00 23 1013.1
20260506201507 84 115 1.7 6.1 0.00 0.00 0.00 24 1013.6
20260506200027 83 198 1.7 5.2 0.00 0.00 0.00 24 1013.4
20260506200005 83 206 1.7 5.2 0.00 0.00 0.00 25 1013.9
20260506194524 84 192 0.9 3.5 0.00 0.00 0.00 25 1013.8
20260506194504 84 192 0.0 4.3 0.00 0.00 0.00 25 1014.1
20260506193014 83 226 0.0 1.7 0.00 0.00 0.00 25 1014.1
20260506193001 83 226 0.0 1.7 0.00 0.00 0.00 26 1014.3
20260506191608 82 149 0.0 3.5 0.00 0.00 0.00 25 1014.5
20260506191518 82 149 0.9 3.5 0.00 0.00 0.00 24 1014.2
20260506190056 81 176 0.9 4.3 0.00 0.00 0.00 26 1014.7
20260506190032 81 248 1.7 4.3 0.00 0.00 0.00 26 1014.5
20260506184553 81 170 0.9 4.3 0.00 0.00 0.00 27 1014.9
20260506184525 81 223 0.9 4.3 0.00 0.00 0.00 27 1014.7
20260506183053 79 78 0.0 3.5 0.00 0.00 0.00 29 1015.1
20260506183028 79 78 0.0 2.6 0.00 0.00 0.00 29 1014.9
20260506181556 78 58 1.7 4.3 0.00 0.00 0.00 29 1015.2
20260506181518 78 73 1.7 3.5 0.00 0.00 0.00 30 1015.0
20260506180021 77 25 0.9 3.5 0.00 0.00 0.00 31 1015.0
20260506174538 77 99 1.7 4.3 0.00 0.00 0.00 32 1015.4
20260506174527 77 92 1.7 3.5 0.00 0.00 0.00 31 1015.1
20260506173040 77 46 1.7 5.2 0.00 0.00 0.00 31 1015.3
20260506173034 77 26 1.7 4.3 0.00 0.00 0.00 31 1015.1
20260506171531 75 163 0.9 4.3 0.00 0.00 0.00 34 1015.4
20260506171517 75 163 0.9 4.3 0.00 0.00 0.00 34 1015.3
20260506170026 75 219 2.6 6.1 0.00 0.00 0.00 35 1015.4
20260506170021 75 223 2.6 5.2 0.00 0.00 0.00 35 1015.3
20260506164524 74 253 0.9 5.2 0.00 0.00 0.00 36 1015.5
20260506163042 73 203 1.7 5.2 0.00 0.00 0.00 36 1015.3
20260506163018 73 209 1.7 6.1 0.00 0.00 0.00 36 1015.5
20260506161528 73 222 0.9 4.3 0.00 0.00 0.00 37 1015.4
20260506161515 73 222 0.9 5.2 0.00 0.00 0.00 37 1015.5
20260506160017 72 300 1.7 5.2 0.00 0.00 0.00 38 1015.2
20260506160013 72 299 1.7 6.1 0.00 0.00 0.00 39 1015.4
20260506154537 71 244 0.9 4.3 0.00 0.00 0.00 39 1015.1
20260506154508 71 239 0.9 5.2 0.00 0.00 0.00 40 1015.4
20260506153029 70 182 0.9 6.1 0.00 0.00 0.00 41 1015.0
20260506153009 70 219 0.9 7.0 0.00 0.00 0.00 42 1015.3
20260506151537 69 257 3.5 9.6 0.00 0.00 0.00 41 1015.0
20260506151501 69 257 3.5 7.0 0.00 0.00 0.00 42 1015.3
20260506150059 68 12 0.9 9.6 0.00 0.00 0.00 43 1015.2
20260506150026 68 234 1.7 9.6 0.00 0.00 0.00 42 1015.0
20260506144605 67 275 3.5 10.4 0.00 0.00 0.00 43 1015.2
20260506144522 67 178 2.6 9.6 0.00 0.00 0.00 42 1015.0
20260506143050 67 240 2.6 8.7 0.00 0.00 0.00 44 1015.1
20260506143031 67 292 2.6 8.7 0.00 0.00 0.00 43 1014.9
20260506141545 66 338 3.5 7.8 0.00 0.00 0.00 45 1014.9
20260506141531 66 334 2.6 10.4 0.00 0.00 0.00 44 1014.5
20260506140042 65 202 2.6 7.0 0.00 0.00 0.00 46 1014.8
20260506140033 65 255 2.6 7.0 0.00 0.00 0.00 45 1014.3
20260506134538 64 267 0.9 6.1 0.00 0.00 0.00 48 1014.6
20260506134528 64 186 0.9 7.0 0.00 0.00 0.00 47 1014.1
20260506133041 63 236 0.9 7.0 0.00 0.00 0.00 49 1014.5
20260506133022 63 267 1.7 7.0 0.00 0.00 0.00 48 1014.1
20260506131533 63 309 1.7 7.0 0.00 0.00 0.00 50 1014.4
20260506131531 63 259 1.7 7.0 0.00 0.00 0.00 49 1013.9
20260506130030 63 231 2.6 10.4 0.00 0.00 0.00 50 1014.1
20260506130026 63 215 1.7 7.8 0.00 0.00 0.00 50 1013.7
20260506124530 63 277 2.6 7.8 0.00 0.00 0.00 50 1013.5
20260506124526 63 192 2.6 7.8 0.00 0.00 0.00 50 1014.0
20260506123025 63 279 0.9 8.7 0.00 0.00 0.00 50 1013.8
20260506123023 63 196 0.9 7.8 0.00 0.00 0.00 50 1013.4
20260506121527 63 320 3.5 10.4 0.00 0.00 0.00 50 1013.2
20260506120028 63 345 3.5 9.6 0.00 0.00 0.00 49 1013.2
20260506114527 63 284 2.6 9.6 0.00 0.00 0.00 49 1013.1
20260506114520 63 234 2.6 9.6 0.00 0.00 0.00 49 1013.4
20260506113021 63 331 3.5 12.2 0.00 0.00 0.00 49 1013.5
20260506113009 63 310 3.5 12.2 0.00 0.00 0.00 49 1013.0
20260506111517 64 271 4.3 10.4 0.00 0.00 0.00 48 1013.4
20260506111515 64 319 3.5 9.6 0.00 0.00 0.00 48 1013.1
20260506110019 64 265 3.5 10.4 0.00 0.00 0.00 48 1013.3
20260506110009 64 275 3.5 10.4 0.00 0.00 0.00 48 1012.9
20260506104515 64 327 4.3 11.3 0.00 0.00 0.00 48 1013.4
20260506104508 64 306 4.3 11.3 0.00 0.00 0.00 48 1013.0
20260506103014 64 355 4.3 12.2 0.00 0.00 0.00 49 1013.2
20260506103010 64 285 3.5 12.2 0.00 0.00 0.00 49 1012.9
20260506101514 64 339 4.3 9.6 0.00 0.00 0.00 50 1013.2
20260506101511 64 9 3.5 9.6 0.00 0.00 0.00 49 1012.9
20260506100013 64 249 3.5 7.8 0.00 0.00 0.00 50 1013.2
20260506100010 64 321 3.5 7.8 0.00 0.00 0.00 49 1012.9
20260506094511 64 325 2.6 10.4 0.00 0.00 0.00 50 1013.2
20260506094508 64 352 2.6 10.4 0.00 0.00 0.00 49 1013.0
20260506093011 64 339 1.7 7.0 0.00 0.00 0.00 50 1013.4
20260506091512 64 328 3.5 11.3 0.00 0.00 0.00 50 1013.4
20260506091508 64 344 3.5 11.3 0.00 0.00 0.00 49 1013.1
20260506090018 64 328 5.2 11.3 0.00 0.00 0.00 49 1013.3
20260506090013 64 323 5.2 11.3 0.00 0.00 0.00 49 1013.0
20260506084522 64 297 4.3 9.6 0.00 0.00 0.00 49 1013.4
20260506084512 64 313 3.5 10.4 0.00 0.00 0.00 48 1013.1
20260506083017 65 321 5.2 13.9 0.00 0.00 0.00 48 1013.1
20260506083005 65 5 5.2 13.9 0.00 0.00 0.00 48 1013.5
20260506081512 65 256 6.1 13.0 0.00 0.00 0.00 47 1013.0
20260506081505 65 339 7.0 11.3 0.00 0.00 0.00 48 1013.4
20260506073116 66 311 6.1 19.1 0.00 0.00 0.00 47 1013.3
20260506073010 65 302 6.1 18.2 0.00 0.00 0.00 46 1013.0
20260506071600 66 355 7.8 20.0 0.00 0.00 0.00 46 1013.3
20260506071518 66 331 8.7 19.1 0.00 0.00 0.00 45 1012.9
20260506061551 66 345 5.2 15.6 0.00 0.00 0.00 44 1012.7
20260506061514 66 296 6.1 14.8 0.00 0.00 0.00 44 1012.5
20260506044549 67 342 5.2 13.9 0.00 0.00 0.00 43 1011.7
20260506044520 67 311 4.3 13.9 0.00 0.00 0.00 42 1011.5
20260506043041 68 300 6.1 17.4 0.00 0.00 0.00 42 1011.4
20260506043016 68 298 6.1 14.8 0.00 0.00 0.00 42 1011.1
20260506041550 68 307 5.2 15.6 0.00 0.00 0.00 42 1011.2
20260506041519 68 342 4.3 14.8 0.00 0.00 0.00 41 1010.9
20260506040041 69 278 6.1 13.9 0.00 0.00 0.00 41 1011.0
20260506040018 69 345 4.3 13.9 0.00 0.00 0.00 40 1010.6
20260506034544 69 320 7.0 12.2 0.00 0.00 0.00 40 1010.8
20260506034528 69 249 7.0 12.2 0.00 0.00 0.00 40 1010.4